Time,TemperatureF,DewpointF,PressureIn,WindDirection,WindDirectionDegrees,WindSpeedMPH,WindSpeedGustMPH,Humidity,HourlyPrecipIn,Conditions,Clouds,dailyrainin,SolarRadiationWatts/m^2,SoftwareType,DateUTC
2013-03-10 00:11:00,41.0,35.0,30.59,SE,125,2.0,5.0,80,0.00,,,0.00,0.000000,,2013-03-10 05:11:00,
2013-03-10 00:22:00,41.0,35.0,30.59,SE,125,2.0,5.0,80,0.00,,,0.00,0.000000,,2013-03-10 05:22:00,
2013-03-10 00:32:00,41.0,35.0,30.59,SE,125,2.0,5.0,80,0.00,,,0.00,0.000000,,2013-03-10 05:32:00,
2013-03-10 00:42:00,41.0,35.0,30.59,SE,125,2.0,5.0,80,0.00,,,0.00,0.000000,,2013-03-10 05:42:00,
2013-03-10 01:11:00,40.0,35.0,30.60,ENE,75,2.0,5.0,81,0.00,,,0.00,0.000000,,2013-03-10 06:11:00,
2013-03-10 01:22:00,40.0,35.0,30.60,ENE,75,2.0,5.0,81,0.00,,,0.00,0.000000,,2013-03-10 06:22:00,
2013-03-10 01:32:00,40.0,35.0,30.60,ENE,75,2.0,5.0,81,0.00,,,0.00,0.000000,,2013-03-10 06:32:00,
2013-03-10 01:42:00,40.0,35.0,30.60,ENE,75,2.0,5.0,81,0.00,,,0.00,0.000000,,2013-03-10 06:42:00,
2013-03-10 03:11:00,37.0,33.0,30.59,East,85,4.0,6.0,84,0.00,,,0.00,0.000000,,2013-03-10 07:11:00,
2013-03-10 03:21:00,37.0,33.0,30.59,East,85,4.0,6.0,84,0.00,,,0.00,0.000000,,2013-03-10 07:21:00,
2013-03-10 03:32:00,37.0,33.0,30.59,East,85,4.0,6.0,84,0.00,,,0.00,0.000000,,2013-03-10 07:32:00,
2013-03-10 03:42:00,37.0,33.0,30.59,East,85,4.0,6.0,84,0.00,,,0.00,0.000000,,2013-03-10 07:42:00,
2013-03-10 04:12:00,38.0,34.0,30.57,East,101,4.0,8.0,85,0.00,,,0.00,0.000000,,2013-03-10 08:12:00,
2013-03-10 04:21:00,38.0,34.0,30.57,East,101,4.0,8.0,85,0.00,,,0.00,0.000000,,2013-03-10 08:21:00,
2013-03-10 04:32:00,38.0,34.0,30.57,East,101,4.0,8.0,85,0.00,,,0.00,0.000000,,2013-03-10 08:32:00,
2013-03-10 04:42:00,38.0,34.0,30.57,East,101,4.0,8.0,85,0.00,,,0.00,0.000000,,2013-03-10 08:42:00,
2013-03-10 05:11:00,34.0,31.0,30.56,ESE,113,4.0,8.0,88,0.00,,,0.00,0.000000,,2013-03-10 09:11:00,
2013-03-10 05:21:00,34.0,31.0,30.56,ESE,113,4.0,8.0,88,0.00,,,0.00,0.000000,,2013-03-10 09:21:00,
2013-03-10 05:32:00,34.0,31.0,30.56,ESE,113,4.0,8.0,88,0.00,,,0.00,0.000000,,2013-03-10 09:32:00,
2013-03-10 05:41:00,34.0,31.0,30.56,ESE,113,4.0,8.0,88,0.00,,,0.00,0.000000,,2013-03-10 09:41:00,
2013-03-10 06:11:00,35.0,32.0,30.58,ESE,109,3.0,8.0,88,0.00,,,0.00,0.000000,,2013-03-10 10:11:00,
2013-03-10 06:22:00,35.0,32.0,30.58,ESE,109,3.0,8.0,88,0.00,,,0.00,0.000000,,2013-03-10 10:22:00,
2013-03-10 06:32:00,35.0,32.0,30.58,ESE,109,3.0,8.0,88,0.00,,,0.00,0.000000,,2013-03-10 10:32:00,
2013-03-10 06:42:00,35.0,32.0,30.58,ESE,109,3.0,8.0,88,0.00,,,0.00,0.000000,,2013-03-10 10:42:00,
2013-03-10 07:12:00,32.0,30.0,30.57,East,91,5.0,10.0,91,0.00,,,0.00,0.000000,,2013-03-10 11:12:00,
2013-03-10 07:21:00,32.0,30.0,30.57,East,91,5.0,10.0,91,0.00,,,0.00,0.000000,,2013-03-10 11:21:00,
2013-03-10 07:32:00,32.0,30.0,30.57,East,91,5.0,10.0,91,0.00,,,0.00,0.000000,,2013-03-10 11:32:00,
2013-03-10 07:42:00,32.0,30.0,30.57,East,91,5.0,10.0,91,0.00,,,0.00,0.000000,,2013-03-10 11:42:00,
2013-03-10 10:12:00,50.0,39.0,30.61,ENE,59,2.0,7.0,66,-99.99,,,0.00,199.000000,,2013-03-10 14:12:00,
2013-03-10 10:22:00,50.0,39.0,30.61,ENE,59,2.0,7.0,66,-99.99,,,0.00,199.000000,,2013-03-10 14:22:00,
2013-03-10 10:32:00,50.0,39.0,30.61,ENE,59,2.0,7.0,66,-99.99,,,0.00,199.000000,,2013-03-10 14:32:00,
2013-03-10 10:42:00,50.0,39.0,30.61,ENE,59,2.0,7.0,66,-99.99,,,0.00,199.000000,,2013-03-10 14:42:00,
2013-03-10 11:11:00,61.0,30.0,30.61,SSE,147,5.0,12.0,31,0.00,,,0.00,536.000000,,2013-03-10 15:11:00,
2013-03-10 11:21:00,61.0,30.0,30.61,SSE,147,5.0,12.0,31,0.00,,,0.00,536.000000,,2013-03-10 15:21:00,
2013-03-10 11:32:00,61.0,30.0,30.61,SSE,147,5.0,12.0,31,0.00,,,0.00,536.000000,,2013-03-10 15:32:00,
2013-03-10 11:42:00,61.0,30.0,30.61,SSE,147,5.0,12.0,31,0.00,,,0.00,536.000000,,2013-03-10 15:42:00,
2013-03-10 12:12:00,66.0,28.0,30.61,SSE,152,6.0,13.0,24,0.00,,,0.00,785.000000,,2013-03-10 16:12:00,
2013-03-10 12:21:00,66.0,28.0,30.61,SSE,152,6.0,13.0,24,0.00,,,0.00,785.000000,,2013-03-10 16:21:00,
2013-03-10 12:32:00,66.0,28.0,30.61,SSE,152,6.0,13.0,24,0.00,,,0.00,785.000000,,2013-03-10 16:32:00,
2013-03-10 12:41:00,66.0,28.0,30.61,SSE,152,6.0,13.0,24,0.00,,,0.00,785.000000,,2013-03-10 16:41:00,
2013-03-10 14:12:00,69.0,27.0,30.57,SE,131,3.0,15.0,21,-99.99,,,0.00,941.000000,,2013-03-10 18:12:00,
2013-03-10 14:22:00,69.0,27.0,30.57,SE,131,3.0,15.0,21,-99.99,,,0.00,941.000000,,2013-03-10 18:22:00,
2013-03-10 14:32:00,69.0,27.0,30.57,SE,131,3.0,15.0,21,-99.99,,,0.00,941.000000,,2013-03-10 18:32:00,
2013-03-10 14:42:00,69.0,27.0,30.57,SE,131,3.0,15.0,21,-99.99,,,0.00,941.000000,,2013-03-10 18:42:00,
2013-03-10 15:11:00,71.0,28.0,30.53,SE,132,5.0,13.0,20,0.00,,,0.00,880.000000,,2013-03-10 19:11:00,
2013-03-10 15:22:00,71.0,28.0,30.53,SE,132,5.0,13.0,20,0.00,,,0.00,880.000000,,2013-03-10 19:22:00,
2013-03-10 15:32:00,71.0,28.0,30.53,SE,132,5.0,13.0,20,0.00,,,0.00,880.000000,,2013-03-10 19:32:00,
2013-03-10 15:42:00,71.0,28.0,30.53,SE,132,5.0,13.0,20,0.00,,,0.00,880.000000,,2013-03-10 19:42:00,
2013-03-10 16:13:00,71.0,27.0,30.53,SSE,157,8.0,16.0,19,0.00,,,0.00,843.000000,,2013-03-10 20:13:00,
2013-03-10 16:22:00,71.0,27.0,30.53,SSE,157,8.0,16.0,19,0.00,,,0.00,843.000000,,2013-03-10 20:22:00,
2013-03-10 16:32:00,71.0,27.0,30.53,SSE,157,8.0,16.0,19,0.00,,,0.00,843.000000,,2013-03-10 20:32:00,
2013-03-10 16:43:00,71.0,27.0,30.53,SSE,157,8.0,16.0,19,0.00,,,0.00,843.000000,,2013-03-10 20:43:00,
2013-03-10 17:12:00,72.0,27.0,30.52,SE,140,5.0,15.0,19,0.00,,,0.00,635.000000,,2013-03-10 21:12:00,
2013-03-10 17:23:00,72.0,27.0,30.52,SE,140,5.0,15.0,19,0.00,,,0.00,635.000000,,2013-03-10 21:23:00,
2013-03-10 17:32:00,72.0,27.0,30.52,SE,140,5.0,15.0,19,0.00,,,0.00,635.000000,,2013-03-10 21:32:00,
2013-03-10 17:42:00,72.0,27.0,30.52,SE,140,5.0,15.0,19,0.00,,,0.00,635.000000,,2013-03-10 21:42:00,
2013-03-10 18:12:00,69.0,27.0,30.51,SSE,158,7.0,14.0,21,0.00,,,0.00,475.000000,,2013-03-10 22:12:00,
2013-03-10 18:22:00,69.0,27.0,30.51,SSE,158,7.0,14.0,21,0.00,,,0.00,475.000000,,2013-03-10 22:22:00,
2013-03-10 18:32:00,69.0,27.0,30.51,SSE,158,7.0,14.0,21,0.00,,,0.00,475.000000,,2013-03-10 22:32:00,
2013-03-10 18:43:00,69.0,27.0,30.51,SSE,158,7.0,14.0,21,0.00,,,0.00,475.000000,,2013-03-10 22:43:00,
2013-03-10 19:12:00,66.0,26.0,30.51,SSE,165,5.0,14.0,22,0.00,,,0.00,230.000000,,2013-03-10 23:12:00,
2013-03-10 19:23:00,66.0,26.0,30.51,SSE,165,5.0,14.0,22,0.00,,,0.00,230.000000,,2013-03-10 23:23:00,
2013-03-10 19:33:00,66.0,26.0,30.51,SSE,165,5.0,14.0,22,0.00,,,0.00,230.000000,,2013-03-10 23:33:00,
2013-03-10 19:42:00,66.0,26.0,30.51,SSE,165,5.0,14.0,22,0.00,,,0.00,230.000000,,2013-03-10 23:42:00,
2013-03-10 20:13:00,57.0,29.0,30.51,SE,140,5.0,9.0,34,0.00,,,0.00,7.000000,,2013-03-11 00:13:00,
2013-03-10 20:23:00,57.0,29.0,30.51,SE,140,5.0,9.0,34,0.00,,,0.00,7.000000,,2013-03-11 00:23:00,
2013-03-10 20:33:00,57.0,29.0,30.51,SE,140,5.0,9.0,34,0.00,,,0.00,7.000000,,2013-03-11 00:33:00,
2013-03-10 20:43:00,57.0,29.0,30.51,SE,140,5.0,9.0,34,0.00,,,0.00,7.000000,,2013-03-11 00:43:00,
2013-03-10 21:13:00,53.0,26.0,30.52,SSE,152,5.0,10.0,35,0.00,,,0.00,0.000000,,2013-03-11 01:13:00,
2013-03-10 21:23:00,53.0,26.0,30.52,SSE,152,5.0,10.0,35,0.00,,,0.00,0.000000,,2013-03-11 01:23:00,
2013-03-10 21:32:00,53.0,26.0,30.52,SSE,152,5.0,10.0,35,0.00,,,0.00,0.000000,,2013-03-11 01:32:00,
2013-03-10 21:43:00,53.0,26.0,30.52,SSE,152,5.0,10.0,35,0.00,,,0.00,0.000000,,2013-03-11 01:43:00,
2013-03-10 22:13:00,53.0,22.0,30.54,SSE,167,7.0,18.0,30,0.00,,,0.00,0.000000,,2013-03-11 02:13:00,
2013-03-10 22:23:00,53.0,22.0,30.54,SSE,167,7.0,18.0,30,0.00,,,0.00,0.000000,,2013-03-11 02:23:00,
2013-03-10 22:32:00,53.0,22.0,30.54,SSE,167,7.0,18.0,30,0.00,,,0.00,0.000000,,2013-03-11 02:32:00,
2013-03-10 22:42:00,53.0,22.0,30.54,SSE,167,7.0,18.0,30,0.00,,,0.00,0.000000,,2013-03-11 02:42:00,
2013-03-10 23:12:00,52.0,28.0,30.56,South,181,5.0,13.0,40,0.00,,,0.00,0.000000,,2013-03-11 03:12:00,
2013-03-10 23:22:00,52.0,28.0,30.56,South,181,5.0,13.0,40,0.00,,,0.00,0.000000,,2013-03-11 03:22:00,
2013-03-10 23:32:00,52.0,28.0,30.56,South,181,5.0,13.0,40,0.00,,,0.00,0.000000,,2013-03-11 03:32:00,
2013-03-10 23:42:00,52.0,28.0,30.56,South,181,5.0,13.0,40,0.00,,,0.00,0.000000,,2013-03-11 03:42:00,